Retour au catalogue

CZ-6A DEB

ActifPO
NORAD 61393·DEBRIS·🇨🇳 China

Lancé Aug 6, 2024 depuis Taiyuan Satellite Launch Center

Loading…

Prochains Passages (prochaines 24 heures)

TLE

FraisSource: Space-Track

Époque: Sep 14, 2026, 11:43 UTC

1 61393U 24140XJ  26257.48842403  .00001623  00000-0  80448-3 0  9997
2 61393  88.9908 265.0738 0082117 297.0046  62.2775 14.15088597104343

Suivez CZ-6A DEB en temps réel avec AllMySat

Download on the App Store